"Period start","avg(HW err(1)/warn(2) (#))","avg(Visibility (m))","avg(Weather code (#))","avg(Precip intensity (mm/h))","min(HW err(1)/warn(2) (#))","max(HW err(1)/warn(2) (#))","std(HW err(1)/warn(2) (#))","med(HW err(1)/warn(2) (#))","min(Visibility (m))","max(Visibility (m))","std(Visibility (m))","med(Visibility (m))","min(Weather code (#))","max(Weather code (#))","std(Weather code (#))","med(Weather code (#))","min(Precip intensity (mm/h))","max(Precip intensity (mm/h))","std(Precip intensity (mm/h))","med(Precip intensity (mm/h))"
2014-10-02 00:00:00,2,21004,0,0.00,2,2,0,2,15808,27339,4294,21026,0,0,0,0,0.00,0.00,0.00,0.00
2014-10-02 00:10:00,2,24451,0,0.00,2,2,0,2,17488,36448,5827,22814,0,0,0,0,0.00,0.00,0.00,0.00
2014-10-02 00:20:00,2,27492,0,0.00,2,2,0,2,17326,37272,5573,26000,0,0,0,0,0.00,0.00,0.00,0.00
2014-10-02 00:30:00,2,25725,0,0.00,2,2,0,2,17702,39614,7585,24025,0,0,0,0,0.00,0.00,0.00,0.00
2014-10-02 00:40:00,2,24854,0,0.00,2,2,0,2,16249,41049,8449,21948,0,0,0,0,0.00,0.00,0.00,0.00
2014-10-02 00:50:00,2,28299,0,0.00,2,2,0,2,17867,43619,7655,27354,0,0,0,0,0.00,0.00,0.00,0.00
2014-10-02 01:00:00,2,26273,0,0.00,0,2,1,2,16063,36679,7016,24618,0,0,0,0,0.00,0.00,0.00,0.00
2014-10-02 01:10:00,2,27522,0,0.00,2,2,0,2,19191,35131,5315,27195,0,0,0,0,0.00,0.00,0.00,0.00
2014-10-02 01:20:00,2,26589,0,0.00,2,2,0,2,17696,37294,6871,26264,0,0,0,0,0.00,0.00,0.00,0.00
2014-10-02 01:30:00,2,30194,0,0.00,2,2,0,2,22097,39952,5620,27290,0,0,0,0,0.00,0.00,0.00,0.00
2014-10-02 01:40:00,2,32798,0,0.00,2,2,0,2,23444,50000,8813,29006,0,0,0,0,0.00,0.00,0.00,0.00
2014-10-02 01:50:00,2,30655,0,0.00,2,2,0,2,20521,36603,6047,34422,0,0,0,0,0.00,0.00,0.00,0.00
2014-10-02 02:00:00,2,31672,0,0.00,2,2,0,2,20782,40652,6314,32276,0,0,0,0,0.00,0.00,0.00,0.00
2014-10-02 02:10:00,2,30261,0,0.00,2,2,0,2,19702,39098,5608,30650,0,0,0,0,0.00,0.00,0.00,0.00
2014-10-02 02:20:00,2,27592,0,0.00,2,2,0,2,18977,35026,4776,26798,0,0,0,0,0.00,0.00,0.00,0.00
2014-10-02 02:30:00,2,36370,0,0.00,2,2,0,2,22729,50000,6987,37464,0,0,0,0,0.00,0.00,0.00,0.00
2014-10-02 02:40:00,2,32615,0,0.00,2,2,0,2,20199,39711,7209,36808,0,0,0,0,0.00,0.00,0.00,0.00
2014-10-02 02:50:00,2,29229,0,0.00,2,2,0,2,19851,40880,7134,28742,0,0,0,0,0.00,0.00,0.00,0.00
2014-10-02 03:00:00,2,37314,0,0.00,2,2,0,2,24764,47936,8057,36777,0,0,0,0,0.00,0.00,0.00,0.00
2014-10-02 03:10:00,2,35308,0,0.00,2,2,0,2,26110,48337,7058,34006,0,0,0,0,0.00,0.00,0.00,0.00
2014-10-02 03:20:00,2,40075,0,0.00,2,2,0,2,27405,50000,6184,40760,0,0,0,0,0.00,0.00,0.00,0.00
2014-10-02 03:30:00,2,37379,0,0.00,2,2,0,2,24776,46143,6541,39072,0,0,0,0,0.00,0.00,0.00,0.00
2014-10-02 03:40:00,2,37626,0,0.00,2,2,0,2,27162,50000,7822,38718,0,0,0,0,0.00,0.00,0.00,0.00
2014-10-02 03:50:00,2,36104,0,0.00,2,2,0,2,27441,44937,6365,36302,0,0,0,0,0.00,0.00,0.00,0.00
2014-10-02 04:00:00,2,38175,0,0.00,2,2,0,2,27999,44109,4908,39705,0,0,0,0,0.00,0.00,0.00,0.00
2014-10-02 04:10:00,2,43050,0,0.00,2,2,0,2,37373,50000,3831,43368,0,0,0,0,0.00,0.00,0.00,0.00
2014-10-02 04:20:00,2,39678,0,0.00,2,2,0,2,33486,44944,3107,39676,0,0,0,0,0.00,0.00,0.00,0.00
2014-10-02 04:30:00,2,35213,0,0.00,2,2,0,2,28698,41994,4686,35421,0,0,0,0,0.00,0.00,0.00,0.00
2014-10-02 04:40:00,2,34118,0,0.00,0,2,1,2,23250,44947,7278,33659,0,0,0,0,0.00,0.00,0.00,0.00
2014-10-02 04:50:00,2,42334,0,0.00,2,2,0,2,29294,50000,7614,44118,0,0,0,0,0.00,0.00,0.00,0.00
2014-10-02 05:00:00,2,38508,0,0.00,2,2,0,2,31203,46187,4484,38641,0,0,0,0,0.00,0.00,0.00,0.00
2014-10-02 05:10:00,2,43890,0,0.00,2,2,0,2,38649,50000,3193,44060,0,0,0,0,0.00,0.00,0.00,0.00
2014-10-02 05:20:00,2,41685,0,0.00,2,2,0,2,31433,47063,4386,42876,0,0,0,0,0.00,0.00,0.00,0.00
2014-10-02 05:30:00,2,43371,0,0.00,2,2,0,2,32913,50000,6146,44710,0,0,0,0,0.00,0.00,0.00,0.00
2014-10-02 05:40:00,2,45029,0,0.00,0,2,1,2,37574,50000,3473,45512,0,0,0,0,0.00,0.00,0.00,0.00
2014-10-02 05:50:00,0,40939,0,0.00,0,0,0,0,35754,45397,2629,40372,0,0,0,0,0.00,0.00,0.00,0.00
2014-10-02 06:00:00,0,34443,0,0.00,0,0,0,0,27835,39703,3869,34046,0,0,0,0,0.00,0.00,0.00,0.00
2014-10-02 06:10:00,2,39513,0,0.00,2,2,0,2,31226,47912,4914,38734,0,0,0,0,0.00,0.00,0.00,0.00
2014-10-02 06:20:00,2,40300,0,0.00,2,2,0,2,32703,47453,3994,39976,0,0,0,0,0.00,0.00,0.00,0.00
2014-10-02 06:30:00,2,36100,0,0.00,2,2,0,2,29198,45910,5727,34506,0,0,0,0,0.00,0.00,0.00,0.00
2014-10-02 06:40:00,2,36562,0,0.00,2,2,0,2,30914,46745,4871,35701,0,0,0,0,0.00,0.00,0.00,0.00
2014-10-02 06:50:00,2,38398,0,0.00,2,2,0,2,31473,45776,4510,37754,0,0,0,0,0.00,0.00,0.00,0.00
2014-10-02 07:00:00,2,36585,0,0.00,2,2,0,2,29938,42755,3488,36906,0,0,0,0,0.00,0.00,0.00,0.00
2014-10-02 07:10:00,2,32393,0,0.00,2,2,0,2,26636,41740,4966,31108,0,0,0,0,0.00,0.00,0.00,0.00
2014-10-02 07:20:00,2,34517,0,0.00,2,2,0,2,27062,44817,5304,33415,0,0,0,0,0.00,0.00,0.00,0.00
2014-10-02 07:30:00,2,33448,0,0.00,2,2,0,2,30145,37852,2742,33795,0,0,0,0,0.00,0.00,0.00,0.00
2014-10-02 07:40:00,2,35661,0,0.00,2,2,0,2,32306,38351,1896,35868,0,0,0,0,0.00,0.00,0.00,0.00
2014-10-02 07:50:00,2,32059,0,0.00,2,2,0,2,25730,39388,4390,31765,0,0,0,0,0.00,0.00,0.00,0.00
2014-10-02 08:00:00,2,31306,0,0.00,2,2,0,2,25089,38484,3774,30932,0,0,0,0,0.00,0.00,0.00,0.00
2014-10-02 08:10:00,2,29523,0,0.00,2,2,0,2,25635,35005,3166,29182,0,0,0,0,0.00,0.00,0.00,0.00
2014-10-02 08:20:00,2,28475,0,0.00,2,2,0,2,25574,33295,2203,27864,0,0,0,0,0.00,0.00,0.00,0.00
2014-10-02 08:30:00,2,31690,0,0.00,2,2,0,2,27245,37054,3330,31896,0,0,0,0,0.00,0.00,0.00,0.00
2014-10-02 08:40:00,2,36558,0,0.00,2,2,0,2,29780,42558,4235,36216,0,0,0,0,0.00,0.00,0.00,0.00
2014-10-02 08:50:00,2,30540,0,0.00,2,2,0,2,24580,37949,4377,28915,0,0,0,0,0.00,0.00,0.00,0.00
2014-10-02 09:00:00,2,30685,0,0.00,2,2,0,2,26431,34353,2464,30448,0,0,0,0,0.00,0.00,0.00,0.00
2014-10-02 09:10:00,2,33139,0,0.00,2,2,0,2,27918,39940,3717,32170,0,0,0,0,0.00,0.00,0.00,0.00
2014-10-02 09:20:00,2,29920,0,0.00,2,2,0,2,26545,33304,1965,29920,0,0,0,0,0.00,0.00,0.00,0.00
2014-10-02 09:30:00,2,25962,0,0.00,2,2,0,2,22754,29891,2050,25783,0,0,0,0,0.00,0.00,0.00,0.00
2014-10-02 09:40:00,2,25616,0,0.00,2,2,0,2,23001,29218,1794,25396,0,0,0,0,0.00,0.00,0.00,0.00
2014-10-02 09:50:00,2,22926,0,0.00,2,2,0,2,19829,26822,2063,22960,0,0,0,0,0.00,0.00,0.00,0.00
2014-10-02 10:00:00,2,25686,0,0.00,2,2,0,2,22554,30217,2168,25671,0,0,0,0,0.00,0.00,0.00,0.00
2014-10-02 10:10:00,2,28348,0,0.00,2,2,0,2,21755,35465,5045,28101,0,0,0,0,0.00,0.00,0.00,0.00
2014-10-02 10:20:00,2,26492,0,0.00,2,2,0,2,23364,32696,2537,25964,0,0,0,0,0.00,0.00,0.00,0.00
2014-10-02 10:30:00,2,26577,0,0.00,2,2,0,2,24882,28924,1328,26184,0,0,0,0,0.00,0.00,0.00,0.00
2014-10-02 10:40:00,2,24552,0,0.00,2,2,0,2,21971,28225,1632,24300,0,0,0,0,0.00,0.00,0.00,0.00
2014-10-02 10:50:00,2,28309,0,0.00,2,2,0,2,25492,31685,1626,27902,0,0,0,0,0.00,0.00,0.00,0.00
2014-10-02 11:00:00,2,26752,0,0.00,2,2,0,2,22641,31347,2661,27132,0,0,0,0,0.00,0.00,0.00,0.00
2014-10-02 11:10:00,2,25173,0,0.00,2,2,0,2,22325,29553,2363,24006,0,0,0,0,0.00,0.00,0.00,0.00
2014-10-02 11:20:00,2,25290,0,0.00,2,2,0,2,22631,32117,2664,24501,0,0,0,0,0.00,0.00,0.00,0.00
2014-10-02 11:30:00,2,27065,0,0.00,2,2,0,2,21746,33184,2860,27282,0,0,0,0,0.00,0.00,0.00,0.00
2014-10-02 11:40:00,2,27280,0,0.00,2,2,0,2,24787,31652,2189,26644,0,0,0,0,0.00,0.00,0.00,0.00
2014-10-02 11:50:00,2,27260,0,0.00,2,2,0,2,23838,34473,3095,26460,0,0,0,0,0.00,0.00,0.00,0.00
2014-10-02 12:00:00,2,25729,0,0.00,2,2,0,2,23214,27410,1311,25944,0,0,0,0,0.00,0.00,0.00,0.00
2014-10-02 12:10:00,2,28471,0,0.00,2,2,0,2,25747,29997,1264,28816,0,0,0,0,0.00,0.00,0.00,0.00
2014-10-02 12:20:00,2,28698,0,0.00,2,2,0,2,23425,33911,3183,28396,0,0,0,0,0.00,0.00,0.00,0.00
2014-10-02 12:30:00,2,27022,0,0.00,2,2,0,2,24079,29817,1660,26944,0,0,0,0,0.00,0.00,0.00,0.00
2014-10-02 12:40:00,2,27528,0,0.00,2,2,0,2,24616,31340,2090,27202,0,0,0,0,0.00,0.00,0.00,0.00
2014-10-02 12:50:00,2,24797,0,0.00,2,2,0,2,22354,31053,2246,24249,0,0,0,0,0.00,0.00,0.00,0.00
2014-10-02 13:00:00,2,24293,0,0.00,2,2,0,2,21724,26590,1532,24263,0,0,0,0,0.00,0.00,0.00,0.00
2014-10-02 13:10:00,2,31690,0,0.00,2,2,0,2,25449,37918,3807,31304,0,0,0,0,0.00,0.00,0.00,0.00
2014-10-02 13:20:00,2,30434,0,0.00,2,2,0,2,23091,38975,5026,30984,0,0,0,0,0.00,0.00,0.00,0.00
2014-10-02 13:30:00,2,23500,0,0.00,2,2,0,2,20182,26647,2014,23320,0,0,0,0,0.00,0.00,0.00,0.00
2014-10-02 13:40:00,2,23920,0,0.00,2,2,0,2,22660,26005,1132,23360,0,0,0,0,0.00,0.00,0.00,0.00
2014-10-02 13:50:00,2,25219,0,0.00,2,2,0,2,22657,28315,1654,25088,0,0,0,0,0.00,0.00,0.00,0.00
2014-10-02 14:00:00,2,23547,0,0.00,2,2,0,2,20684,27184,1811,23785,0,0,0,0,0.00,0.00,0.00,0.00
2014-10-02 14:10:00,2,21326,0,0.00,2,2,0,2,20127,22588,862,21341,0,0,0,0,0.00,0.00,0.00,0.00
2014-10-02 14:20:00,2,21382,0,0.00,2,2,0,2,19387,24023,1685,21664,0,0,0,0,0.00,0.00,0.00,0.00
2014-10-02 14:30:00,2,22093,0,0.00,2,2,0,2,17821,27580,3260,21224,0,0,0,0,0.00,0.00,0.00,0.00
2014-10-02 14:40:00,2,19020,1,0.00,2,2,0,2,562,24844,7405,22052,0,10,3,0,0.00,0.00,0.00,0.00
2014-10-02 14:50:00,2,5588,10,0.00,2,2,0,2,667,8292,2920,6867,10,10,0,10,0.00,0.00,0.00,0.00
2014-10-02 15:00:00,2,6617,10,0.00,2,2,0,2,1899,9363,2483,7594,10,10,0,10,0.00,0.00,0.00,0.00
2014-10-02 15:10:00,2,5574,10,0.00,2,2,0,2,2090,10846,2319,5292,10,10,0,10,0.00,0.00,0.00,0.00
2014-10-02 15:20:00,2,3501,10,0.00,2,2,0,2,1047,8404,2465,3072,10,10,0,10,0.00,0.00,0.00,0.00
2014-10-02 15:30:00,2,7715,10,0.00,2,2,0,2,385,16619,6454,7611,10,10,0,10,0.00,0.00,0.00,0.00
2014-10-02 15:40:00,2,11170,8,0.00,2,2,0,2,2027,15597,5325,14133,0,10,4,10,0.00,0.00,0.00,0.00
2014-10-02 15:50:00,2,928,24,0.00,2,2,0,2,278,2771,697,746,10,34,12,34,0.00,0.00,0.00,0.00
2014-10-02 16:00:00,2,419,34,0.00,2,2,0,2,232,660,139,430,34,34,0,34,0.00,0.00,0.00,0.00
2014-10-02 16:10:00,2,470,34,0.00,2,2,0,2,310,676,121,456,34,34,0,34,0.00,0.00,0.00,0.00
2014-10-02 16:20:00,2,202,34,0.00,2,2,0,2,191,216,9,202,34,34,0,34,0.00,0.00,0.00,0.00
2014-10-02 16:30:00,2,238,34,0.00,2,2,0,2,195,300,35,228,34,34,0,34,0.00,0.00,0.00,0.00
2014-10-02 16:40:00,2,325,34,0.00,2,2,0,2,203,722,155,256,34,34,0,34,0.00,0.00,0.00,0.00
2014-10-02 16:50:00,2,324,34,0.00,2,2,0,2,247,456,71,309,33,34,0,34,0.00,0.00,0.00,0.00
2014-10-02 17:00:00,2,276,33,0.00,2,2,0,2,139,1092,274,182,33,34,0,33,0.00,0.00,0.00,0.00
2014-10-02 17:10:00,2,9392,31,0.00,2,2,0,2,6120,11277,1602,9971,31,33,1,31,0.00,0.00,0.00,0.00
2014-10-02 17:20:00,2,11277,31,0.00,2,2,0,2,9035,13319,1242,11311,31,31,0,31,0.00,0.00,0.00,0.00
2014-10-02 17:30:00,2,14990,31,0.00,2,2,0,2,13828,16422,823,14867,31,31,0,31,0.00,0.00,0.00,0.00
2014-10-02 17:40:00,2,16775,21,0.00,2,2,0,2,15783,19149,950,16540,20,31,3,20,0.00,0.00,0.00,0.00
2014-10-02 17:50:00,2,17279,20,0.00,2,2,0,2,16275,18021,537,17274,20,20,0,20,0.00,0.00,0.00,0.00
2014-10-02 18:00:00,2,17203,20,0.00,2,2,0,2,16521,19503,844,17028,20,20,0,20,0.00,0.00,0.00,0.00
2014-10-02 18:10:00,2,18057,20,0.00,2,2,0,2,16440,19339,828,18155,20,20,0,20,0.00,0.00,0.00,0.00
2014-10-02 18:20:00,2,18090,20,0.00,2,2,0,2,17050,19124,674,17816,20,20,0,20,0.00,0.00,0.00,0.00
2014-10-02 18:30:00,2,18183,20,0.00,2,2,0,2,15980,19340,1155,18714,20,20,0,20,0.00,0.00,0.00,0.00
2014-10-02 18:40:00,2,18114,2,0.00,2,2,0,2,17044,19768,929,18092,0,20,6,0,0.00,0.00,0.00,0.00
2014-10-02 18:50:00,2,19022,0,0.00,2,2,0,2,16861,22116,1622,18770,0,0,0,0,0.00,0.00,0.00,0.00
2014-10-02 19:00:00,2,16149,0,0.00,2,2,0,2,13409,19158,1631,16274,0,0,0,0,0.00,0.00,0.00,0.00
2014-10-02 19:10:00,2,14389,0,0.00,2,2,0,2,13103,15859,738,14294,0,0,0,0,0.00,0.00,0.00,0.00
2014-10-02 19:20:00,2,20202,0,0.00,2,2,0,2,16039,26576,3015,20082,0,0,0,0,0.00,0.00,0.00,0.00
2014-10-02 19:30:00,2,18391,0,0.00,2,2,0,2,15769,20695,1371,18352,0,0,0,0,0.00,0.00,0.00,0.00
2014-10-02 19:40:00,2,17575,0,0.00,2,2,0,2,16090,20020,1128,17371,0,0,0,0,0.00,0.00,0.00,0.00
2014-10-02 19:50:00,2,17765,0,0.00,2,2,0,2,16505,19036,813,17860,0,0,0,0,0.00,0.00,0.00,0.00
2014-10-02 20:00:00,2,15335,0,0.00,2,2,0,2,14152,16393,731,15132,0,0,0,0,0.00,0.00,0.00,0.00
2014-10-02 20:10:00,2,15501,0,0.00,2,2,0,2,13683,18208,1372,15383,0,0,0,0,0.00,0.00,0.00,0.00
2014-10-02 20:20:00,2,16973,0,0.00,2,2,0,2,14048,18681,1394,17692,0,0,0,0,0.00,0.00,0.00,0.00
2014-10-02 20:30:00,2,18281,0,0.00,2,2,0,2,16055,20223,1375,18454,0,0,0,0,0.00,0.00,0.00,0.00
2014-10-02 20:40:00,2,16868,0,0.00,2,2,0,2,16042,17803,541,16829,0,0,0,0,0.00,0.00,0.00,0.00
2014-10-02 20:50:00,2,16920,0,0.00,2,2,0,2,15830,18508,814,16632,0,0,0,0,0.00,0.00,0.00,0.00
2014-10-02 21:00:00,2,17293,0,0.00,2,2,0,2,15204,20695,1716,17224,0,0,0,0,0.00,0.00,0.00,0.00
2014-10-02 21:10:00,2,16708,0,0.00,2,2,0,2,14902,19162,1408,16782,0,0,0,0,0.00,0.00,0.00,0.00
2014-10-02 21:20:00,2,16018,0,0.00,2,2,0,2,12825,18997,1714,15562,0,0,0,0,0.00,0.00,0.00,0.00
2014-10-02 21:30:00,2,14193,0,0.00,2,2,0,2,4324,22042,5306,15689,0,0,0,0,0.00,0.00,0.00,0.00
2014-10-02 21:40:00,2,998,13,0.00,2,2,0,2,640,2703,592,782,0,34,10,10,0.00,0.00,0.00,0.00
2014-10-02 21:50:00,2,2803,34,0.00,2,2,0,2,621,7285,2024,2570,34,34,0,34,0.00,0.00,0.00,0.00
2014-10-02 22:00:00,2,4547,20,0.00,2,2,0,2,3171,6773,1397,3821,20,20,0,20,0.00,0.00,0.00,0.00
2014-10-02 22:10:00,2,1648,20,0.00,2,2,0,2,712,2701,782,1372,20,20,0,20,0.00,0.00,0.00,0.00
2014-10-02 22:20:00,2,638,31,0.00,2,2,0,2,501,797,85,644,20,34,6,34,0.00,0.00,0.00,0.00
2014-10-02 22:30:00,2,2142,34,0.00,2,2,0,2,612,9017,2460,1166,34,34,0,34,0.00,0.00,0.00,0.00
2014-10-02 22:40:00,2,2728,23,0.00,2,2,0,2,774,6817,1914,1926,20,34,6,20,0.00,0.00,0.00,0.00
2014-10-02 22:50:00,2,3501,20,0.00,2,2,0,2,1528,6970,1541,3344,20,20,0,20,0.00,0.00,0.00,0.00
2014-10-02 23:00:00,2,2150,20,0.00,2,2,0,2,1091,3375,720,2150,20,20,0,20,0.00,0.00,0.00,0.00
2014-10-02 23:10:00,2,5576,20,0.00,2,2,0,2,1770,8278,2043,6116,20,20,0,20,0.00,0.00,0.00,0.00
2014-10-02 23:20:00,2,7163,20,0.00,2,2,0,2,6302,8067,520,7032,20,20,0,20,0.00,0.00,0.00,0.00
2014-10-02 23:30:00,2,8238,20,0.00,2,2,0,2,7742,8763,285,8210,20,20,0,20,0.00,0.00,0.00,0.00
2014-10-02 23:40:00,2,2807,11,0.00,2,2,0,2,751,8329,2018,2572,10,20,3,10,0.00,0.00,0.00,0.00
2014-10-02 23:50:00,2,6228,10,0.00,2,2,0,2,2792,8807,1670,6170,10,10,0,10,0.00,0.00,0.00,0.00
